Location: Krakow
(50.0830°N, 19.9170°E)
Time: 12:44:23
(UTC+01:00)

Transit 2A - Visible Passes

Search period start: 15 March 2026 00:00
Search period end: 25 March 2026 00:00
Orbit: 590 x 954 km, 66.7° (Epoch: 14 March)

Date Brightness Start Highest point End Pass type
(mag) Time Alt. Az. Time Alt. Az. Time Alt. Az.
15 Mar 9.7 04:22:35 10° E 04:22:53 10° E 04:23:10 10° E visible
17 Mar 8.6 04:47:06 10° SSE 04:52:15 27° ESE 04:57:25 10° NE visible
18 Mar 9.0 04:11:50 10° SSE 04:16:09 20° ESE 04:20:28 10° ENE visible
19 Mar 9.1 03:37:13 10° SE 03:40:07 14° E 03:43:01 10° ENE visible
20 Mar 7.5 04:39:53 10° S 04:45:51 47° ESE 04:51:48 10° NE visible
21 Mar 8.0 04:04:03 10° S 04:09:38 34° ESE 04:15:10 10° NE visible
22 Mar 8.4 03:28:32 10° SSE 03:33:29 25° ESE 03:38:24 10° ENE visible
23 Mar 8.8 02:53:25 10° SE 02:57:23 18° ESE 03:01:20 10° ENE visible
23 Mar 6.6 04:33:19 10° SSW 04:39:39 78° ESE 04:45:51 10° NE visible
24 Mar 8.9 02:19:12 10° ESE 02:21:21 12° E 02:23:31 10° E visible
24 Mar 7.0 03:57:08 10° SSW 04:03:18 58° ESE 04:09:23 10° NE visible
